Brownwood, TX

5:23 AM CDT on April 24, 2017 (GMT -0500)
Brownwood Regional

Weather History for KBWD - October, 2012

Change the Weather History Date:

Sunday, October 21, 2012

  Actual Average (KABI) Record (KABI)
Temperature  
Mean Temperature 80 °F -  
Max Temperature 91 °F 73 °F 93 °F (1979)
Min Temperature 68 °F 51 °F 34 °F (1917)
Cooling Degree Days 14    
Growing Degree Days 30 (Base 50)    
Moisture  
Dew Point 65 °F    
Average Humidity 66    
Maximum Humidity 94    
Minimum Humidity 38    
Precipitation  
Precipitation 0.00 in - - ()
Sea Level Pressure  
Sea Level Pressure 29.86 in    
Wind  
Wind Speed 11 mph (South)    
Max Wind Speed 21 mph    
Max Gust Speed 26 mph    
Visibility 9 miles    
Events      
Averages and records for this station are not official NWS values.
T = Trace of Precipitation, MM = Missing Value Source: NWS Daily Summary

Daily Weather History Graph

Daily Weather History Graph

Search for Another Location

Airport or City:

Trip Planner

Search our weather history database for the weather conditions in past years. The results will help you decide how hot, cold, wet, or windy it might be!

Date:

Astronomy

Oct. 21, 2012 Rise Set
Actual Time 7:43 AM CDT 6:56 PM CDT
Civil Twilight 7:19 AM CDT 7:21 PM CDT
Nautical Twilight 6:50 AM CDT 7:49 PM CDT
Astronomical Twilight 6:22 AM CDT 8:17 PM CDT
Moon 1:58 PM CDT (10/21) No Moon Set
Length of Visible Light 12h 01m
Length of Day
11h 12m
Waxing Crescent, 45% of the Moon is Illuminated
Oct 21
Waxing Crescent
Oct 21
First Quarter
Oct 29
Full
Nov 6
Last Quarter
Nov 13
New

Hourly Weather History & Observations

Time (CDT) Temp. Heat Index Dew Point Humidity Pressure Visibility Wind Dir Wind Speed Gust Speed Precip Events Conditions
12:15 AM 73.4 °F - 64.4 °F 73% 29.81 in 10.0 mi SE 5.8 mph - N/A   Clear
12:35 AM 71.6 °F - 64.4 °F 78% 29.81 in 10.0 mi SE 5.8 mph - N/A   Clear
12:55 AM 71.6 °F - 64.4 °F 78% 29.81 in 10.0 mi North - - N/A   Clear
1:15 AM 71.6 °F - 64.4 °F 78% 29.81 in 10.0 mi North - - N/A   Clear
1:35 AM 69.8 °F - 64.4 °F 83% 29.82 in 10.0 mi North - - N/A   Clear
1:55 AM 71.6 °F - 64.4 °F 78% 29.82 in 10.0 mi North - - N/A   Clear
2:15 AM 71.6 °F - 66.2 °F 83% 29.82 in 10.0 mi North - - N/A   Clear
2:35 AM 71.6 °F - 66.2 °F 83% 29.83 in 10.0 mi North - - N/A   Clear
2:55 AM 71.6 °F - 66.2 °F 83% 29.83 in 10.0 mi North - - N/A   Clear
3:15 AM 71.6 °F - 66.2 °F 83% 29.82 in 10.0 mi North - - N/A   Clear
3:55 AM 71.6 °F - 66.2 °F 83% 29.82 in 8.0 mi North - - N/A   Clear
4:15 AM 71.6 °F - 68.0 °F 88% 29.82 in 7.0 mi North - - N/A   Clear
4:35 AM 71.6 °F - 68.0 °F 88% 29.83 in 7.0 mi South 6.9 mph - N/A   Clear
4:55 AM 71.6 °F - 68.0 °F 88% 29.83 in 7.0 mi SSE 5.8 mph - N/A   Clear
5:15 AM 71.6 °F - 68.0 °F 88% 29.84 in 6.0 mi SE 6.9 mph - N/A   Clear
5:35 AM 71.6 °F - 68.0 °F 88% 29.84 in 7.0 mi SSE 6.9 mph - N/A   Clear
5:55 AM 71.6 °F - 68.0 °F 88% 29.84 in 7.0 mi SSE 6.9 mph - N/A   Clear
6:15 AM 71.6 °F - 66.2 °F 83% 29.85 in 7.0 mi SSE 6.9 mph - N/A   Clear
6:35 AM 69.8 °F - 66.2 °F 88% 29.85 in 8.0 mi North - - N/A   Clear
6:55 AM 69.8 °F - 66.2 °F 88% 29.86 in 7.0 mi North - - N/A   Clear
7:15 AM 69.8 °F - 66.2 °F 88% 29.86 in 7.0 mi SSE 6.9 mph - N/A   Clear
7:35 AM 68.0 °F - 66.2 °F 94% 29.86 in 7.0 mi SSE 9.2 mph - N/A   Clear
7:55 AM 68.0 °F - 66.2 °F 94% 29.87 in 5.0 mi SSE 8.1 mph - N/A   Clear
8:15 AM 69.8 °F - 66.2 °F 88% 29.88 in 5.0 mi SSE 8.1 mph - N/A   Partly Cloudy
8:35 AM 69.8 °F - 66.2 °F 88% 29.88 in 5.0 mi SSE 8.1 mph - N/A   Mostly Cloudy
8:55 AM 71.6 °F - 68.0 °F 88% 29.89 in 6.0 mi SSE 8.1 mph - N/A   Overcast
9:15 AM 71.6 °F - 68.0 °F 88% 29.90 in 6.0 mi SSE 8.1 mph - N/A   Overcast
9:55 AM 75.2 °F - 68.0 °F 78% 29.91 in 8.0 mi South 13.8 mph - N/A   Overcast
10:15 AM 75.2 °F - 68.0 °F 78% 29.91 in 8.0 mi South 15.0 mph 21.9 mph N/A   Mostly Cloudy
10:35 AM 77.0 °F - 68.0 °F 74% 29.91 in 9.0 mi South 15.0 mph 21.9 mph N/A   Mostly Cloudy
10:55 AM 80.6 °F 83.2 °F 68.0 °F 65% 29.91 in 9.0 mi South 16.1 mph 24.2 mph N/A   Partly Cloudy
11:15 AM 80.6 °F 83.2 °F 68.0 °F 65% 29.90 in 10.0 mi South 16.1 mph 19.6 mph N/A   Clear
11:55 AM 84.2 °F 86.6 °F 66.2 °F 55% 29.90 in 10.0 mi SSW 19.6 mph 24.2 mph N/A   Clear
12:15 PM 84.2 °F 86.6 °F 66.2 °F 55% 29.90 in 9.0 mi South 20.7 mph 25.3 mph N/A   Clear
12:35 PM 86.0 °F 87.3 °F 64.4 °F 48% 29.89 in 10.0 mi South 20.7 mph 26.5 mph N/A   Clear
12:55 PM 86.0 °F 88.2 °F 66.2 °F 51% 29.89 in 10.0 mi SSW 17.3 mph 21.9 mph N/A   Clear
1:15 PM 89.6 °F 91.1 °F 64.4 °F 43% 29.87 in 10.0 mi South 20.7 mph 24.2 mph N/A   Clear
1:55 PM 89.6 °F 91.1 °F 64.4 °F 43% 29.86 in 10.0 mi SSW 17.3 mph 25.3 mph N/A   Clear
2:15 PM 89.6 °F 91.1 °F 64.4 °F 43% 29.85 in 10.0 mi SSW 19.6 mph 26.5 mph N/A   Clear
2:35 PM 89.6 °F 91.1 °F 64.4 °F 43% 29.84 in 10.0 mi SSW 13.8 mph 25.3 mph N/A   Clear
2:55 PM 89.6 °F 91.1 °F 64.4 °F 43% 29.83 in 10.0 mi South 18.4 mph 25.3 mph N/A   Clear
3:15 PM 89.6 °F 90.1 °F 62.6 °F 40% 29.83 in 10.0 mi South 18.4 mph - N/A   Clear
3:55 PM 91.4 °F 92.1 °F 62.6 °F 38% 29.83 in 10.0 mi South 16.1 mph 24.2 mph N/A   Clear
4:15 PM 91.4 °F 92.1 °F 62.6 °F 38% 29.83 in 10.0 mi South 15.0 mph 20.7 mph N/A   Clear
4:35 PM 91.4 °F 92.1 °F 62.6 °F 38% 29.82 in 10.0 mi South 15.0 mph 21.9 mph N/A   Clear
4:55 PM 89.6 °F 90.1 °F 62.6 °F 40% 29.83 in 10.0 mi SSW 17.3 mph 21.9 mph N/A   Clear
5:15 PM 89.6 °F 90.1 °F 62.6 °F 40% 29.83 in 10.0 mi South 13.8 mph 20.7 mph N/A   Clear
5:35 PM 89.6 °F 90.1 °F 62.6 °F 40% 29.83 in 10.0 mi South 13.8 mph 18.4 mph N/A   Clear
5:55 PM 89.6 °F 90.1 °F 62.6 °F 40% 29.83 in 10.0 mi South 12.7 mph 19.6 mph N/A   Clear
6:15 PM 87.8 °F 88.5 °F 62.6 °F 43% 29.83 in 10.0 mi South 12.7 mph 18.4 mph N/A   Clear
6:35 PM 86.0 °F 86.6 °F 62.6 °F 45% 29.83 in 10.0 mi SSE 11.5 mph 19.6 mph N/A   Clear
6:55 PM 84.2 °F 85.0 °F 62.6 °F 48% 29.83 in 10.0 mi SSE 11.5 mph - N/A   Clear
7:15 PM 84.2 °F 85.0 °F 62.6 °F 48% 29.84 in 10.0 mi SSE 8.1 mph - N/A   Clear
7:35 PM 82.4 °F 83.4 °F 62.6 °F 51% 29.85 in 10.0 mi North - - N/A   Partly Cloudy
7:55 PM 82.4 °F 83.4 °F 62.6 °F 51% 29.86 in 10.0 mi North - - N/A   Clear
8:15 PM 82.4 °F 83.4 °F 62.6 °F 51% 29.86 in 10.0 mi North - - N/A   Partly Cloudy
8:35 PM 80.6 °F 81.8 °F 62.6 °F 54% 29.87 in 10.0 mi North - - N/A   Partly Cloudy
8:55 PM 80.6 °F 81.8 °F 62.6 °F 54% 29.87 in 10.0 mi North - - N/A   Partly Cloudy
9:15 PM 80.6 °F 81.8 °F 62.6 °F 54% 29.88 in 10.0 mi SSE 12.7 mph 19.6 mph N/A   Partly Cloudy
9:35 PM 80.6 °F 81.8 °F 62.6 °F 54% 29.89 in 10.0 mi SSE 11.5 mph 18.4 mph N/A   Partly Cloudy
9:55 PM 78.8 °F - 62.6 °F 57% 29.89 in 10.0 mi SSE 11.5 mph - N/A   Scattered Clouds
10:15 PM 77.0 °F - 62.6 °F 61% 29.89 in 10.0 mi SSE 10.4 mph - N/A   Partly Cloudy
11:15 PM 77.0 °F - 64.4 °F 65% 29.90 in 10.0 mi South 15.0 mph 20.7 mph N/A   Partly Cloudy
11:35 PM 77.0 °F - 64.4 °F 65% 29.90 in 10.0 mi South 13.8 mph 24.2 mph N/A   Partly Cloudy
11:55 PM 75.2 °F - 64.4 °F 69% 29.90 in 10.0 mi SSE 12.7 mph 19.6 mph N/A   Clear